"Pseudo-MPEC" for P11OkaT

Created 2023 Dec 2 1:22:04 UT using Find_Orb

Click here for an explanation of pseudo-MPECs

 
 Astrometry: 
     P11OkaT* C2023 11 18RuL^@W3\ns1brMcC$bRvS9i)U@@3Astrometry?y?:K#5]7qQd]:F51
     P11OkaT  C2023 11 18]0#Zh?fdr%SUA.PbvIa;gs-Jd$UNao1KME9F2$s71(3tXOp\6eW^F51
     P11OkaT  C2023 11 18a[e7Q'`,3bF4NJae5iR/'Y^redacted;rE8)]ye`Vky-,*IRrwVYF51
     P11OkaT  C2023 11 18cEHclickoUJw4bI3TRqSqWLMH%j/1NY=FVM%ss'iNR@nCPIuGVmXF51
     P11OkaT  C2023 11 18\@Zbdislk8Yq,7yO?+o\yl2h3Y5ko/%WtH+@KvY^:PjR)@K4i-h\F51
     P11OkaT KC2023 11 19?j$R#9ws*PKhere5qP1P4LZXXx)RBktX0e6=B)no+q\v5SL!]:MqH21
     P11OkaT KC2023 11 19r_iKBvm3p%x5ooXxcforM]Z'?0=L\cvE5I^$explanationtZAnqH21

Station data:
(F51) Pan-STARRS 1, Haleakala  (N20.707234 W156.255910)  US/Hawaii.
   Observers J. Bulger, T. Lowe, A. Schultz, M. Willman. Measurers K.
   Chambers, S. Chastel, T. de Boer, L. Denneau, J. Fairlamb, H. Flewelling,
   M. Huber, C.-C. Lin, E. Magnier, Y. Ramanjooloo, R. Wainscoat, R. Weryk.
   1.8-m Ritchey-Chrétien + CCD.
(H21) Astronomical Research Observatory, Westfield  (N39.483054 W87.968270)
   US/Illinois.  Observer R. Holmes. Measurers S. Foglia, L. Buzzi, T.
   Linder, R. Holmes. 0.76-m f/3.0 astrograph + CCD0.81-m f/4.0 astrograph +
   CCD0.61-m f/4.5 astrograph + CCD0.40-m f/5.32 astrograph + CCD.

Orbital elements:  P11OkaT
   Perihelion 2024 Feb 15.17165 +/- 52.3 TT =  4:07:10 (JD 2460355.67165)
Epoch 2023 Nov 19.0 TT = JDT 2460267.5   Earth MOID: 0.5704   Ma: 0.0494
M 337.75891950 +/- 10               (J2000 ecliptic)             AutoNEOCP
n   0.25224752 +/- 0.052            Peri.  307.40173 +/- 46
a   2.48076014 +/- 0.341            Node   172.73998 +/- 11
e   0.3966658 +/- 0.0911            Incl.   17.33614 +/- 1.2
P   3.91                   H 19.97  G  0.15   U 10.8  SR
q 1.49672730 +/- 0.176    Q 3.46479297 +/- 0.858
From 7 observations 2023 Nov. 18-19 (19.5 hr); mean residual 0".11
Residuals in arcseconds: 
231118 F51  .14+  .02+    231118 F51  .05-  .20-    231119 H21  .19+  .05+    
231118 F51  .01+  .13+    231118 F51  .09-  .03-    
231118 F51  .03-  .04+    231119 H21  .05-  .16+    

Ephemerides (geocentric):
Date (UTC) HH   RA             Dec           delta  r     elong  mag " sig PA
---- --------  ------------   ------------  ------ ------ -----  --- --------
2023 12 02 01  05 40 53.336   -16 05 59.81  .75896 1.6327 138.3 21.5  813 177
2023 12 02 02  05 40 52.389   -16 06 34.32  .75878 1.6326 138.3 21.5  818 177
2023 12 02 03  05 40 51.440   -16 07 08.78  .75861 1.6324 138.3 21.5  824 177
2023 12 02 04  05 40 50.487   -16 07 43.18  .75843 1.6323 138.3 21.5  829 177
2023 12 02 05  05 40 49.532   -16 08 17.54  .75825 1.6322 138.3 21.5  834 176
2023 12 02 06  05 40 48.574   -16 08 51.84  .75808 1.6320 138.3 21.5  839 176
2023 12 02 07  05 40 47.613   -16 09 26.09  .75790 1.6319 138.3 21.5  844 176
2023 12 02 08  05 40 46.649   -16 10 00.29  .75773 1.6317 138.3 21.5  849 176
2023 12 02 09  05 40 45.683   -16 10 34.44  .75755 1.6316 138.3 21.5  854 176
2023 12 02 10  05 40 44.714   -16 11 08.53  .75738 1.6315 138.3 21.5  859 176
2023 12 02 11  05 40 43.742   -16 11 42.58  .75720 1.6313 138.4 21.5  864 176
2023 12 02 12  05 40 42.768   -16 12 16.57  .75703 1.6312 138.4 21.5  869 176
2023 12 02 13  05 40 41.791   -16 12 50.51  .75685 1.6311 138.4 21.5  875 176
2023 12 02 14  05 40 40.811   -16 13 24.40  .75668 1.6309 138.4 21.5  880 176
2023 12 02 15  05 40 39.829   -16 13 58.23  .75651 1.6308 138.4 21.5  885 176
2023 12 02 16  05 40 38.844   -16 14 32.01  .75633 1.6306 138.4 21.5  890 176
2023 12 02 17  05 40 37.856   -16 15 05.74  .75616 1.6305 138.4 21.5  895 176
2023 12 02 18  05 40 36.865   -16 15 39.42  .75599 1.6304 138.4 21.5  901 176
2023 12 02 19  05 40 35.872   -16 16 13.04  .75581 1.6302 138.4 21.5  906 176
2023 12 02 20  05 40 34.876   -16 16 46.62  .75564 1.6301 138.4 21.5  911 176
2023 12 02 21  05 40 33.877   -16 17 20.13  .75547 1.6299 138.4 21.5  917 176
2023 12 02 22  05 40 32.876   -16 17 53.60  .75530 1.6298 138.4 21.5  922 176
2023 12 02 23  05 40 31.872   -16 18 27.01  .75513 1.6297 138.4 21.5  927 176
2023 12 03 00  05 40 30.866   -16 19 00.37  .75495 1.6295 138.4 21.5  932 176
2023 12 03 01  05 40 29.856   -16 19 33.68  .75478 1.6294 138.4 21.5  938 176
2023 12 03 02  05 40 28.845   -16 20 06.93  .75461 1.6293 138.4 21.5  943 176
2023 12 03 03  05 40 27.830   -16 20 40.13  .75444 1.6291 138.4 21.5  948 176
2023 12 03 04  05 40 26.813   -16 21 13.27  .75427 1.6290 138.4 21.5  954 176
2023 12 03 05  05 40 25.793   -16 21 46.37  .75410 1.6288 138.4 21.5  959 176
2023 12 03 06  05 40 24.771   -16 22 19.40  .75393 1.6287 138.4 21.5  965 176
2023 12 03 07  05 40 23.746   -16 22 52.39  .75376 1.6286 138.5 21.5  970 176
2023 12 03 08  05 40 22.718   -16 23 25.32  .75359 1.6284 138.5 21.5  976 176
2023 12 03 09  05 40 21.688   -16 23 58.19  .75342 1.6283 138.5 21.5  981 176
2023 12 03 10  05 40 20.655   -16 24 31.02  .75325 1.6282 138.5 21.5  986 176
2023 12 03 11  05 40 19.619   -16 25 03.78  .75308 1.6280 138.5 21.5  992 176
2023 12 03 12  05 40 18.581   -16 25 36.50  .75292 1.6279 138.5 21.5  997 176
2023 12 03 13  05 40 17.541   -16 26 09.16  .75275 1.6277 138.5 21.5 1003 176
2023 12 03 14  05 40 16.497   -16 26 41.76  .75258 1.6276 138.5 21.5 1008 176
2023 12 03 15  05 40 15.451   -16 27 14.31  .75241 1.6275 138.5 21.5 1014 176
2023 12 03 16  05 40 14.403   -16 27 46.81  .75224 1.6273 138.5 21.5 1019 175
2023 12 03 17  05 40 13.352   -16 28 19.25  .75208 1.6272 138.5 21.5 1025 175
2023 12 03 18  05 40 12.298   -16 28 51.64  .75191 1.6271 138.5 21.5 1031 175
2023 12 03 19  05 40 11.242   -16 29 23.97  .75174 1.6269 138.5 21.5 1036 175
2023 12 03 20  05 40 10.183   -16 29 56.25  .75158 1.6268 138.5 21.5 1042 175
2023 12 03 21  05 40 09.122   -16 30 28.47  .75141 1.6267 138.5 21.5 1047 175
2023 12 03 22  05 40 08.058   -16 31 00.63  .75124 1.6265 138.5 21.5 1053 175
2023 12 03 23  05 40 06.992   -16 31 32.75  .75108 1.6264 138.5 21.5 1059 175
2023 12 04 00  05 40 05.923   -16 32 04.80  .75091 1.6262 138.5 21.5 1064 175